Content
SEND FEEDBACK

Daily
Averages
Monthly
Summary
United States of America

ST. LOUIS - SAINT LOUIS UNIVERSITY, MISSOURI


Home > North America > United States > Missouri
Elevation: 580 feet     Latitude: 38 38N     Longitude: 090 14W

WEATHER
 
SELECT A DAY
Number of Records: 186,481;   Date Range: 1/1/95 - 9/19/14
 
SHARE

PRINT THIS DATA

[ ← Previous Day ]
WEATHER ALMANAC - APRIL 8, 2013
[ Next Day → ]
[ °C ]   °F
Weather ElementAverageHighLow
Temperature69.5 °F75.9 °F (12:53 pm)59 °F (6:53 am)
Dewpoint54.9 °F57 °F (11:53 am)51.1 °F (6:53 am)
Humidity60.3 %75 % (6:53 am)50 % (3:53 pm)
Barometer29.80 in29.88 in (11:53 pm)29.73 in (5:53 am)
Wind Speed10 mph16.1 mph (3:53 pm)
Wind Gust25.3 mph (3:53 pm)
Weather ElementAverage
Visibility9.7 mi
Wind DirectionS (175.4 °)

Weather ElementTotal
Precipitation---
Cooling Degree Days2.5 (Base 65)
Growing Degree Days17.5 (Base 50)
Averaged from 24 records on April 8, 2013
WEATHER CONDITIONS BREAKOUT
WIND DIRECTION BREAKOUT
WEATHER BY HOUR - APRIL 8, 2013
[ °C ]   °F
Local TimeTemperatureDewpointHumidityBarometerVisibilityWind DirectionWind SpeedGust SpeedPrecipitationEventsConditions
1:53 AM64.0 °F54.0 °F70 %29.79 in10.0 miSSW (200°)11.5 mph20.7 mphClear
2:53 AM63.0 °F53.1 °F70 %29.77 in10.0 miSouth (180°)10.4 mphClear
3:53 AM63.0 °F52.0 °F67 %29.74 in10.0 miSouth (180°)15.0 mph24.2 mphOvercast
4:53 AM62.1 °F52.0 °F70 %29.75 in10.0 miSouth (190°)10.4 mphPartly Cloudy
5:53 AM61.0 °F52.0 °F72 %29.73 in10.0 miSouth (170°)10.4 mphClear
6:53 AM59.0 °F51.1 °F75 %29.76 in10.0 miSE (140°)4.6 mphClear
7:53 AM64.0 °F53.1 °F67 %29.77 in10.0 miSouth (180°)6.9 mphClear
8:53 AM66.0 °F54.0 °F65 %29.78 in10.0 miSSW (200°)8.1 mphClear
9:53 AM66.9 °F54.0 °F63 %29.81 in10.0 miSW (220°)8.1 mphClear
10:53 AM71.1 °F55.9 °F59 %29.82 in10.0 miSSW (210°)9.2 mph17.3 mphClear
11:53 AM73.9 °F57.0 °F55 %29.81 in10.0 miSW (220°)8.1 mphClear
12:53 PM75.9 °F57.0 °F52 %29.80 in10.0 miSE (130°)4.6 mphClear
1:53 PM75.9 °F57.0 °F52 %29.79 in10.0 miSouth (170°)10.4 mph17.3 mphMostly Cloudy
2:53 PM75.0 °F57.0 °F53 %29.79 in10.0 miSSE (160°)13.8 mph24.2 mphScattered Clouds
3:53 PM75.9 °F55.9 °F50 %29.78 in10.0 miSouth (170°)16.1 mph25.3 mphClear
4:33 PM75.2 °F55.4 °F50 %29.79 in5.0 miSouth (170°)13.8 mph20.7 mphHaze
4:53 PM75.9 °F55.9 °F50 %29.78 in8.0 miSouth (190°)15.0 mph24.2 mphPartly Cloudy
5:53 PM75.0 °F55.9 °F51 %29.79 in10.0 miSSE (160°)11.5 mphClear
6:53 PM73.9 °F55.9 °F53 %29.81 in10.0 miSSE (160°)8.1 mphPartly Cloudy
7:53 PM71.1 °F55.0 °F57 %29.81 in10.0 miSSE (160°)5.8 mphClear
8:53 PM70.0 °F55.9 °F61 %29.84 in10.0 miSSE (150°)10.4 mphOvercast
9:53 PM70.0 °F55.9 °F61 %29.87 in10.0 miSouth (170°)11.5 mph18.4 mphOvercast
10:53 PM70.0 °F55.9 °F61 %29.87 in10.0 miSouth (170°)10.4 mphOvercast
11:53 PM69.1 °F55.9 °F63 %29.88 in10.0 miSSE (160°)5.8 mphOvercast
Hourly data recorded from KCPS, located miles away from St. Louis - Saint Louis University, Missouri







STORIES FROM OUR PARTNERS